contact:dominique.lefevre@mio.osupytheas.fr, maurice.libes@osupytheas.fr, didier.mallarino@osupytheas.fr
Project:EMSO http://www.emso-fr.org/EMSO-France
Depth: 2436.0 m
Title:EMSO Ligure Ouest : Data MII capteur AQUADOPP
Date,Latitude,Longitude,X_East,Y_North,Z_Up,Amplitude_X,Amplitude_Y,Amplitude_Z,Batterie,SoundSpeed,Heading,Pitch,Roll,Pressure,TIS,Speed,Direction
, degrees North, degrees East, m.s-1, m.s-1,m.s-1, 1, 1, 1, Volt, m.s-1, degree, degree, degree, dbar, degree_C, m.s-1, degree
2021-11-03T00:04:03,42.805,6.029,0.016,-0.01,0.009,100.0,101.0,100.0,13.4,1505.2,326.7,-0.7,1.8,2470.626,13.28,0.018,122.0
2021-11-03T00:07:03,42.805,6.029,-0.007,0.0,-0.014,100.0,102.0,100.0,13.3,1505.2,327.4,-0.7,1.8,2470.589,13.28,0.007,270.0
2021-11-03T00:10:03,42.805,6.029,0.016,0.014,0.006,100.0,102.0,100.0,13.3,1505.2,326.7,-0.7,1.8,2470.612,13.28,0.021,48.8
2021-11-03T00:13:03,42.805,6.029,0.012,-0.005,-0.022,101.0,101.0,100.0,13.4,1505.2,329.0,-0.8,1.8,2470.618,13.28,0.013,112.6
2021-11-03T00:16:03,42.805,6.029,0.027,0.014,0.043,100.0,101.0,100.0,13.3,1505.2,329.7,-0.8,1.9,2470.596,13.28,0.03,62.6
2021-11-03T00:19:03,42.805,6.029,0.025,-0.001,-0.004,100.0,101.0,99.0,13.4,1505.2,328.1,-0.7,1.8,2470.654,13.28,0.025,92.3
2021-11-03T00:22:03,42.805,6.029,0.013,0.014,0.016,101.0,101.0,100.0,13.4,1505.2,327.5,-0.7,1.8,2470.575,13.28,0.019,42.9
2021-11-03T00:25:03,42.805,6.029,0.021,-0.001,0.014,100.0,102.0,99.0,13.4,1505.2,330.1,-0.8,1.8,2470.557,13.28,0.021,92.7
2021-11-03T00:28:03,42.805,6.029,0.011,-0.013,-0.003,100.0,101.0,100.0,13.4,1505.2,331.5,-0.8,1.8,2470.613,13.28,0.017,139.8
2021-11-03T00:31:03,42.805,6.029,0.005,-0.008,-0.005,101.0,102.0,100.0,13.3,1505.2,329.2,-0.8,1.8,2470.59,13.28,0.009,148.0
2021-11-03T00:34:03,42.805,6.029,0.009,-0.005,0.015,101.0,101.0,99.0,13.4,1505.2,330.0,-0.8,1.8,2470.578,13.28,0.01,119.1
2021-11-03T00:37:03,42.805,6.029,0.012,-0.009,0.015,101.0,102.0,99.0,13.3,1505.2,329.4,-0.8,1.8,2470.596,13.28,0.015,126.9
2021-11-03T00:40:03,42.805,6.029,0.014,-0.01,-0.018,100.0,101.0,100.0,13.4,1505.2,331.3,-0.8,1.8,2470.585,13.28,0.017,125.5
2021-11-03T00:43:03,42.805,6.029,0.008,-0.004,0.006,101.0,102.0,100.0,13.3,1505.2,326.2,-0.8,1.8,2470.579,13.28,0.008,116.6
2021-11-03T00:46:03,42.805,6.029,0.007,-0.005,-0.053,101.0,103.0,100.0,13.3,1505.2,327.0,-0.7,1.8,2470.536,13.28,0.008,125.5
2021-11-03T00:49:03,42.805,6.029,-0.005,0.007,-0.002,100.0,101.0,101.0,13.4,1505.2,327.3,-0.7,1.9,2470.606,13.28,0.008,324.5
2021-11-03T00:52:03,42.805,6.029,0.0,-0.001,0.039,101.0,101.0,100.0,13.3,1505.2,328.1,-0.7,1.8,2470.589,13.28,0.001,180.0
2021-11-03T00:55:03,42.805,6.029,0.032,-0.012,-0.003,100.0,102.0,100.0,13.3,1505.2,328.1,-0.8,1.8,2470.556,13.28,0.034,110.6
2021-11-03T00:58:03,42.805,6.029,0.013,-0.003,0.03,101.0,102.0,100.0,13.4,1505.2,328.3,-0.8,1.8,2470.588,13.28,0.013,103.0
2021-11-03T01:04:03,42.805,6.029,0.013,-0.002,0.008,102.0,103.0,102.0,13.4,1505.2,327.1,-0.8,1.8,2470.602,13.28,0.013,98.7
2021-11-03T01:07:03,42.805,6.029,0.025,0.001,0.037,101.0,102.0,100.0,13.4,1505.2,329.3,-0.8,1.8,2470.645,13.28,0.025,87.7
2021-11-03T01:10:03,42.805,6.029,-0.002,-0.001,-0.017,101.0,101.0,100.0,13.4,1505.2,331.0,-0.7,1.8,2470.606,13.28,0.002,243.4
2021-11-03T01:13:03,42.805,6.029,-0.008,-0.001,-0.017,100.0,101.0,100.0,13.4,1505.2,327.1,-0.8,1.8,2470.646,13.28,0.008,262.9
2021-11-03T01:16:03,42.805,6.029,0.024,0.01,0.035,101.0,102.0,100.0,13.4,1505.2,327.5,-0.8,1.8,2470.614,13.28,0.026,67.4
2021-11-03T01:19:03,42.805,6.029,0.012,0.002,0.024,101.0,102.0,100.0,13.4,1505.2,329.1,-0.8,1.9,2470.589,13.28,0.012,80.5
2021-11-03T01:22:03,42.805,6.029,0.016,0.0,-0.016,101.0,100.0,100.0,13.4,1505.2,331.5,-0.7,1.8,2470.599,13.28,0.016,90.0
2021-11-03T01:25:03,42.805,6.029,0.007,-0.013,0.003,101.0,101.0,100.0,13.4,1505.2,327.5,-0.7,1.8,2470.598,13.28,0.014,151.7
2021-11-03T01:28:03,42.805,6.029,0.016,-0.014,0.01,100.0,101.0,100.0,13.4,1505.2,325.1,-0.8,1.8,2470.57,13.28,0.021,131.2
2021-11-03T01:31:03,42.805,6.029,0.01,0.017,0.003,100.0,102.0,100.0,13.3,1505.2,331.3,-0.7,1.8,2470.613,13.28,0.019,30.5
2021-11-03T01:34:03,42.805,6.029,-0.003,0.014,0.032,101.0,102.0,100.0,13.4,1505.2,328.0,-0.8,1.8,2470.602,13.28,0.014,347.9
2021-11-03T01:37:03,42.805,6.029,0.01,-0.007,-0.01,102.0,102.0,99.0,13.4,1505.2,325.4,-0.8,1.8,2470.596,13.28,0.012,125.0
2021-11-03T01:40:03,42.805,6.029,0.011,0.021,0.002,101.0,100.0,100.0,13.4,1505.2,328.9,-0.7,1.8,2470.583,13.28,0.023,27.6
2021-11-03T01:43:03,42.805,6.029,0.033,-0.003,-0.005,101.0,101.0,100.0,13.4,1505.2,328.8,-0.7,1.8,2470.597,13.28,0.033,95.2
2021-11-03T01:46:03,42.805,6.029,0.009,0.013,0.021,101.0,100.0,100.0,13.3,1505.2,330.8,-0.8,1.8,2470.567,13.28,0.015,34.7
2021-11-03T01:49:03,42.805,6.029,-0.003,0.022,0.014,101.0,103.0,100.0,13.4,1505.2,326.8,-0.7,1.9,2470.624,13.28,0.022,352.2
2021-11-03T01:52:03,42.805,6.029,0.017,0.0,-0.015,100.0,102.0,100.0,13.4,1505.2,325.1,-0.8,1.8,2470.616,13.28,0.017,90.0
2021-11-03T01:55:03,42.805,6.029,-0.006,-0.009,-0.004,102.0,100.0,101.0,13.3,1505.2,329.7,-0.7,1.8,2470.623,13.28,0.01,213.7
2021-11-03T01:58:03,42.805,6.029,0.015,0.0,0.008,101.0,101.0,100.0,13.3,1505.2,327.1,-0.8,1.8,2470.595,13.28,0.015,90.0
2021-11-03T02:04:03,42.805,6.029,0.009,-0.012,0.011,100.0,101.0,101.0,13.4,1505.2,330.3,-0.7,1.8,2470.636,13.28,0.015,143.1
2021-11-03T02:07:03,42.805,6.029,0.003,0.003,0.017,101.0,101.0,100.0,13.4,1505.2,326.9,-0.7,1.8,2470.633,13.28,0.004,45.0
2021-11-03T02:10:03,42.805,6.029,-0.004,0.008,0.023,100.0,101.0,100.0,13.3,1505.2,330.8,-0.7,1.8,2470.633,13.28,0.008,333.4
2021-11-03T02:13:03,42.805,6.029,0.035,0.002,0.001,100.0,101.0,100.0,13.4,1505.2,331.2,-0.7,1.8,2470.644,13.28,0.035,86.7
2021-11-03T02:16:03,42.805,6.029,0.018,-0.014,-0.007,102.0,101.0,100.0,13.4,1505.2,330.3,-0.7,1.8,2470.655,13.28,0.022,127.9
2021-11-03T02:19:03,42.805,6.029,0.023,-0.012,0.019,101.0,101.0,100.0,13.4,1505.2,331.7,-0.8,1.8,2470.621,13.28,0.025,117.6
2021-11-03T02:22:03,42.805,6.029,0.006,0.01,0.008,102.0,101.0,100.0,13.3,1505.2,330.4,-0.7,1.8,2470.634,13.28,0.011,31.0
2021-11-03T02:25:03,42.805,6.029,0.014,-0.006,-0.028,100.0,102.0,100.0,13.3,1505.2,328.1,-0.7,1.8,2470.663,13.28,0.015,113.2
2021-11-03T02:28:03,42.805,6.029,0.038,-0.007,-0.005,101.0,100.0,100.0,13.4,1505.2,328.1,-0.8,1.8,2470.629,13.28,0.038,100.4
2021-11-03T02:31:03,42.805,6.029,0.02,-0.01,0.011,101.0,101.0,101.0,13.3,1505.2,325.4,-0.8,1.8,2470.608,13.28,0.022,116.6
2021-11-03T02:34:03,42.805,6.029,-0.019,0.006,-0.012,100.0,101.0,100.0,13.3,1505.2,331.5,-0.8,1.8,2470.605,13.28,0.019,287.5
2021-11-03T02:37:03,42.805,6.029,0.02,0.0,-0.004,101.0,101.0,100.0,13.3,1505.2,327.2,-0.8,1.8,2470.59,13.28,0.02,90.0
2021-11-03T02:40:03,42.805,6.029,-0.006,0.006,-0.018,100.0,102.0,101.0,13.4,1505.2,330.0,-0.8,1.8,2470.634,13.28,0.008,315.0
2021-11-03T02:43:03,42.805,6.029,0.006,0.01,-0.014,100.0,103.0,99.0,13.3,1505.2,326.0,-0.8,1.8,2470.64,13.28,0.011,31.0
2021-11-03T02:46:03,42.805,6.029,0.001,0.01,0.051,101.0,101.0,100.0,13.4,1505.2,328.9,-0.8,1.8,2470.643,13.28,0.01,5.7
2021-11-03T02:49:03,42.805,6.029,0.004,0.013,0.011,101.0,102.0,100.0,13.4,1505.2,331.2,-0.8,1.9,2470.607,13.28,0.013,17.1
2021-11-03T02:52:03,42.805,6.029,-0.002,0.013,0.042,100.0,101.0,101.0,13.4,1505.2,328.1,-0.7,1.8,2470.685,13.28,0.013,351.3
2021-11-03T02:55:03,42.805,6.029,0.005,0.011,0.024,101.0,101.0,101.0,13.4,1505.2,328.2,-0.8,1.9,2470.654,13.28,0.012,24.4
2021-11-03T02:58:03,42.805,6.029,0.003,-0.004,0.008,100.0,102.0,100.0,13.4,1505.2,327.9,-0.7,1.8,2470.671,13.28,0.005,143.1
2021-11-03T03:04:03,42.805,6.029,0.0,-0.003,-0.01,101.0,102.0,99.0,13.3,1505.2,325.0,-0.8,1.8,2470.665,13.28,0.003,180.0
2021-11-03T03:07:03,42.805,6.029,-0.002,0.015,0.01,100.0,102.0,100.0,13.4,1505.2,326.8,-0.8,1.8,2470.713,13.28,0.015,352.4
2021-11-03T03:10:03,42.805,6.029,0.004,0.016,0.012,101.0,101.0,100.0,13.4,1505.2,327.1,-0.7,1.8,2470.696,13.28,0.016,14.0
2021-11-03T03:13:03,42.805,6.029,0.013,0.001,0.002,100.0,102.0,101.0,13.4,1505.2,331.8,-0.8,1.8,2470.733,13.28,0.013,85.6
2021-11-03T03:16:03,42.805,6.029,-0.008,-0.001,0.018,100.0,102.0,100.0,13.3,1505.2,325.9,-0.8,1.8,2470.677,13.28,0.008,262.9
2021-11-03T03:19:03,42.805,6.029,0.007,-0.002,0.02,101.0,101.0,100.0,13.4,1505.2,324.7,-0.8,1.8,2470.703,13.28,0.007,105.9
2021-11-03T03:22:03,42.805,6.029,0.015,0.006,-0.003,100.0,101.0,100.0,13.4,1505.2,326.9,-0.7,1.8,2470.671,13.28,0.016,68.2
2021-11-03T03:25:03,42.805,6.029,0.017,0.002,0.006,101.0,101.0,99.0,13.4,1505.2,326.7,-0.7,1.8,2470.707,13.28,0.017,83.3
2021-11-03T03:28:03,42.805,6.029,-0.001,-0.029,-0.023,101.0,101.0,100.0,13.4,1505.2,327.9,-0.8,1.8,2470.724,13.28,0.029,182.0
2021-11-03T03:31:03,42.805,6.029,0.006,-0.021,-0.019,101.0,101.0,99.0,13.4,1505.2,329.2,-0.8,1.8,2470.723,13.28,0.021,164.1
2021-11-03T03:34:03,42.805,6.029,0.003,0.004,0.008,101.0,101.0,100.0,13.4,1505.2,329.5,-0.8,1.8,2470.719,13.28,0.005,36.9
2021-11-03T03:37:03,42.805,6.029,0.002,-0.02,-0.007,101.0,101.0,100.0,13.4,1505.2,328.3,-0.7,1.8,2470.721,13.28,0.02,174.3
2021-11-03T03:40:03,42.805,6.029,-0.007,-0.005,-0.009,101.0,101.0,100.0,13.4,1505.2,327.3,-0.7,1.8,2470.746,13.28,0.008,234.5
2021-11-03T03:43:03,42.805,6.029,0.001,0.018,0.032,101.0,101.0,100.0,13.3,1505.2,331.0,-0.8,1.8,2470.704,13.28,0.018,3.2
2021-11-03T03:46:03,42.805,6.029,0.015,-0.003,0.002,101.0,101.0,100.0,13.4,1505.2,329.3,-0.8,1.8,2470.726,13.28,0.015,101.3
2021-11-03T03:49:03,42.805,6.029,0.008,0.017,0.017,101.0,100.0,102.0,13.4,1505.2,325.7,-0.8,1.8,2470.737,13.28,0.018,25.2
2021-11-03T03:52:03,42.805,6.029,-0.009,0.0,-0.028,100.0,101.0,101.0,13.4,1505.2,331.1,-0.8,1.8,2470.735,13.28,0.009,270.0
2021-11-03T03:55:03,42.805,6.029,0.001,-0.003,-0.024,101.0,100.0,101.0,13.4,1505.2,328.9,-0.7,1.8,2470.742,13.28,0.003,161.6
2021-11-03T03:58:03,42.805,6.029,0.014,-0.012,0.01,100.0,101.0,100.0,13.4,1505.2,326.4,-0.8,1.8,2470.734,13.28,0.018,130.6
2021-11-03T04:04:03,42.805,6.029,0.003,-0.006,-0.012,101.0,101.0,100.0,13.4,1505.2,329.4,-0.8,1.8,2470.773,13.28,0.006,153.4
2021-11-03T04:07:03,42.805,6.029,0.009,-0.02,-0.012,100.0,101.0,100.0,13.3,1505.2,330.6,-0.7,1.8,2470.768,13.28,0.021,155.8
2021-11-03T04:10:03,42.805,6.029,0.022,-0.006,0.001,100.0,101.0,101.0,13.3,1505.2,329.0,-0.7,1.8,2470.72,13.28,0.022,105.3
2021-11-03T04:13:03,42.805,6.029,-0.007,0.004,0.0,101.0,102.0,99.0,13.3,1505.2,328.2,-0.7,1.9,2470.762,13.28,0.008,299.7
2021-11-03T04:16:03,42.805,6.029,0.009,-0.005,-0.005,101.0,101.0,100.0,13.4,1505.2,326.9,-0.7,1.8,2470.768,13.29,0.01,119.1
2021-11-03T04:19:03,42.805,6.029,-0.013,0.006,0.007,102.0,101.0,100.0,13.4,1505.2,327.4,-0.7,1.8,2470.78,13.29,0.014,294.8
2021-11-03T04:22:03,42.805,6.029,0.016,0.007,0.009,100.0,102.0,100.0,13.4,1505.2,328.0,-0.7,1.8,2470.738,13.29,0.017,66.4
2021-11-03T04:25:03,42.805,6.029,-0.003,0.0,0.01,101.0,102.0,101.0,13.4,1505.2,330.2,-0.8,1.8,2470.763,13.29,0.003,270.0
2021-11-03T04:28:03,42.805,6.029,0.004,0.001,0.002,101.0,101.0,101.0,13.4,1505.2,326.7,-0.7,1.8,2470.757,13.29,0.004,76.0
2021-11-03T04:31:03,42.805,6.029,0.004,-0.003,0.008,101.0,102.0,101.0,13.4,1505.2,327.3,-0.8,1.8,2470.725,13.29,0.005,126.9
2021-11-03T04:34:03,42.805,6.029,0.009,0.007,-0.001,101.0,101.0,100.0,13.4,1505.2,326.5,-0.8,1.8,2470.749,13.29,0.011,52.1
2021-11-03T04:37:03,42.805,6.029,-0.001,-0.015,-0.018,100.0,101.0,101.0,13.3,1505.2,327.1,-0.8,1.8,2470.749,13.29,0.015,183.8
2021-11-03T04:40:03,42.805,6.029,-0.015,-0.011,0.002,102.0,101.0,101.0,13.4,1505.2,327.4,-0.8,1.8,2470.753,13.29,0.018,233.7
2021-11-03T04:43:03,42.805,6.029,-0.004,0.003,0.019,102.0,101.0,100.0,13.4,1505.2,328.4,-0.7,1.8,2470.77,13.29,0.005,306.9
2021-11-03T04:46:03,42.805,6.029,-0.003,-0.007,-0.017,101.0,101.0,100.0,13.4,1505.2,326.5,-0.8,1.8,2470.788,13.29,0.007,203.2
2021-11-03T04:49:03,42.805,6.029,0.003,-0.004,-0.021,99.0,101.0,101.0,13.3,1505.2,327.1,-0.8,1.8,2470.756,13.29,0.005,143.1
2021-11-03T04:52:03,42.805,6.029,0.0,-0.008,0.014,101.0,101.0,99.0,13.4,1505.2,327.6,-0.8,1.8,2470.751,13.29,0.008,180.0
2021-11-03T04:55:03,42.805,6.029,-0.001,-0.011,0.021,100.0,101.0,101.0,13.4,1505.2,328.4,-0.8,1.9,2470.769,13.29,0.011,185.2
2021-11-03T04:58:03,42.805,6.029,-0.018,0.037,0.01,101.0,101.0,100.0,13.4,1505.2,328.9,-0.7,1.8,2470.775,13.29,0.041,334.1
2021-11-03T05:04:03,42.805,6.029,-0.006,-0.004,0.012,101.0,101.0,100.0,13.3,1505.2,325.5,-0.8,1.8,2470.822,13.28,0.007,236.3
2021-11-03T05:07:03,42.805,6.029,-0.001,0.018,0.032,101.0,101.0,100.0,13.3,1505.2,327.1,-0.8,1.9,2470.769,13.28,0.018,356.8
2021-11-03T05:10:03,42.805,6.029,0.027,-0.01,-0.006,101.0,101.0,100.0,13.3,1505.2,331.8,-0.7,1.8,2470.792,13.29,0.028,110.3
2021-11-03T05:13:03,42.805,6.029,-0.002,0.005,0.019,100.0,100.0,100.0,13.4,1505.2,327.4,-0.7,1.8,2470.781,13.29,0.005,338.2
2021-11-03T05:16:03,42.805,6.029,-0.011,0.022,0.02,100.0,101.0,99.0,13.4,1505.2,327.7,-0.8,1.8,2470.778,13.29,0.024,333.4
2021-11-03T05:19:03,42.805,6.029,0.016,0.0,0.0,102.0,100.0,100.0,13.4,1505.2,327.3,-0.8,1.8,2470.772,13.29,0.016,90.0
2021-11-03T05:22:03,42.805,6.029,-0.002,0.007,-0.001,101.0,100.0,101.0,13.3,1505.2,329.3,-0.7,1.8,2470.776,13.29,0.007,344.1
2021-11-03T05:25:03,42.805,6.029,-0.01,0.0,0.005,100.0,102.0,100.0,13.4,1505.2,331.3,-0.8,1.8,2470.77,13.29,0.01,270.0
2021-11-03T05:28:03,42.805,6.029,0.004,0.003,0.002,100.0,100.0,101.0,13.4,1505.2,327.3,-0.8,1.8,2470.756,13.29,0.005,53.1
2021-11-03T05:31:03,42.805,6.029,0.0,0.015,0.043,100.0,101.0,100.0,13.3,1505.2,328.6,-0.7,1.8,2470.795,13.29,0.015,0.0
2021-11-03T05:34:03,42.805,6.029,-0.004,0.008,0.0,101.0,100.0,100.0,13.4,1505.2,331.7,-0.8,1.8,2470.797,13.29,0.008,333.4
2021-11-03T05:37:03,42.805,6.029,-0.005,0.022,0.02,100.0,101.0,100.0,13.4,1505.2,326.8,-0.8,1.8,2470.763,13.29,0.022,347.2
2021-11-03T05:40:03,42.805,6.029,0.003,0.001,0.005,100.0,100.0,100.0,13.4,1505.2,331.3,-0.7,1.8,2470.755,13.29,0.003,71.6
2021-11-03T05:43:03,42.805,6.029,-0.005,-0.005,-0.028,100.0,101.0,100.0,13.4,1505.2,325.7,-0.7,1.8,2470.768,13.29,0.007,225.0
2021-11-03T05:46:03,42.805,6.029,-0.025,0.001,-0.025,100.0,100.0,100.0,13.3,1505.2,325.0,-0.7,1.8,2470.79,13.29,0.025,272.3
2021-11-03T05:49:03,42.805,6.029,-0.006,0.007,-0.029,100.0,100.0,101.0,13.4,1505.2,328.3,-0.7,1.8,2470.775,13.29,0.009,319.4
2021-11-03T05:52:03,42.805,6.029,-0.007,0.001,-0.041,100.0,100.0,100.0,13.4,1505.2,330.5,-0.8,1.8,2470.81,13.29,0.007,278.1
2021-11-03T05:55:03,42.805,6.029,0.0,0.015,0.03,100.0,101.0,100.0,13.3,1505.2,331.0,-0.7,1.8,2470.773,13.29,0.015,0.0
2021-11-03T05:58:03,42.805,6.029,-0.015,0.007,-0.005,101.0,100.0,99.0,13.4,1505.2,327.1,-0.8,1.9,2470.797,13.29,0.016,295.0
2021-11-03T06:04:03,42.805,6.029,-0.003,0.021,0.011,100.0,100.0,100.0,13.3,1505.2,328.0,-0.7,1.8,2470.825,13.28,0.021,351.9
2021-11-03T06:07:03,42.805,6.029,-0.025,0.009,-0.001,100.0,101.0,99.0,13.4,1505.2,325.4,-0.8,1.8,2470.836,13.29,0.026,289.8
2021-11-03T06:10:03,42.805,6.029,-0.016,-0.006,0.0,101.0,101.0,99.0,13.3,1505.2,330.7,-0.7,1.8,2470.807,13.29,0.017,249.4
2021-11-03T06:13:03,42.805,6.029,0.0,-0.003,-0.007,99.0,100.0,100.0,13.4,1505.2,329.1,-0.7,1.8,2470.783,13.29,0.003,180.0
2021-11-03T06:16:03,42.805,6.029,0.004,0.002,-0.006,100.0,101.0,100.0,13.4,1505.2,326.9,-0.8,1.8,2470.781,13.29,0.004,63.4
2021-11-03T06:19:03,42.805,6.029,-0.011,0.006,0.014,100.0,99.0,100.0,13.3,1505.2,325.7,-0.8,1.8,2470.8,13.29,0.012,298.6
2021-11-03T06:22:03,42.805,6.029,-0.007,0.001,-0.008,99.0,100.0,100.0,13.3,1505.2,328.2,-0.7,1.8,2470.821,13.29,0.007,278.1
2021-11-03T06:25:03,42.805,6.029,0.022,0.006,0.005,100.0,99.0,100.0,13.3,1505.2,330.4,-0.7,1.8,2470.769,13.29,0.022,74.7
2021-11-03T06:28:03,42.805,6.029,-0.014,0.002,-0.019,99.0,101.0,100.0,13.3,1505.2,328.4,-0.7,1.8,2470.767,13.29,0.014,278.1
2021-11-03T06:31:03,42.805,6.029,0.038,-0.001,-0.002,99.0,100.0,100.0,13.4,1505.2,326.9,-0.8,1.8,2470.804,13.29,0.038,91.5
2021-11-03T06:34:03,42.805,6.029,-0.001,0.012,0.026,100.0,102.0,99.0,13.4,1505.2,331.2,-0.8,1.8,2470.77,13.29,0.012,355.2
2021-11-03T06:37:03,42.805,6.029,-0.004,-0.003,-0.004,100.0,99.0,100.0,13.3,1505.2,326.1,-0.8,1.8,2470.79,13.29,0.005,233.1
2021-11-03T06:40:03,42.805,6.029,-0.019,-0.001,-0.032,100.0,100.0,100.0,13.4,1505.2,327.5,-0.8,1.8,2470.807,13.29,0.019,267.0
2021-11-03T06:43:03,42.805,6.029,0.009,-0.002,-0.004,99.0,100.0,100.0,13.4,1505.2,327.7,-0.8,1.8,2470.804,13.29,0.009,102.5
2021-11-03T06:46:03,42.805,6.029,-0.003,0.003,-0.025,101.0,101.0,98.0,13.3,1505.2,327.2,-0.7,1.8,2470.743,13.29,0.004,315.0
2021-11-03T06:49:03,42.805,6.029,-0.004,0.023,0.035,99.0,100.0,99.0,13.4,1505.2,326.7,-0.8,1.8,2470.757,13.29,0.023,350.1
2021-11-03T06:52:03,42.805,6.029,-0.004,0.009,-0.004,100.0,100.0,99.0,13.4,1505.2,328.4,-0.8,1.8,2470.764,13.29,0.009,336.0
2021-11-03T06:55:03,42.805,6.029,-0.01,0.002,-0.021,100.0,100.0,100.0,13.3,1505.2,328.3,-0.7,1.8,2470.736,13.29,0.01,281.3
2021-11-03T06:58:03,42.805,6.029,0.004,-0.006,0.011,100.0,101.0,98.0,13.4,1505.2,329.7,-0.8,1.8,2470.753,13.29,0.007,146.3
2021-11-03T07:04:03,42.805,6.029,0.006,0.012,0.007,99.0,100.0,101.0,13.3,1505.2,326.8,-0.8,1.8,2470.833,13.28,0.013,26.6
2021-11-03T07:07:03,42.805,6.029,0.007,0.0,0.009,100.0,101.0,98.0,13.3,1505.2,325.6,-0.7,1.8,2470.789,13.28,0.007,90.0
2021-11-03T07:10:03,42.805,6.029,0.027,-0.001,0.023,100.0,100.0,100.0,13.3,1505.2,328.2,-0.8,1.9,2470.788,13.29,0.027,92.1
2021-11-03T07:13:03,42.805,6.029,0.022,-0.008,-0.012,98.0,99.0,101.0,13.4,1505.2,328.9,-0.7,1.8,2470.802,13.29,0.023,110.0
2021-11-03T07:16:03,42.805,6.029,-0.039,0.008,-0.015,97.0,100.0,101.0,13.4,1505.2,331.3,-0.8,1.8,2470.814,13.29,0.039,281.6
2021-11-03T07:19:03,42.805,6.029,0.034,-0.029,-0.042,100.0,100.0,100.0,13.4,1505.2,331.7,-0.7,1.8,2470.8,13.29,0.044,130.5
2021-11-03T07:22:03,42.805,6.029,-0.005,-0.013,-0.049,100.0,100.0,100.0,13.4,1505.2,329.5,-0.8,1.8,2470.797,13.29,0.013,201.0
2021-11-03T07:25:03,42.805,6.029,-0.004,-0.006,-0.034,100.0,99.0,100.0,13.4,1505.2,331.2,-0.7,1.8,2470.778,13.29,0.007,213.7
2021-11-03T07:28:03,42.805,6.029,-0.025,0.042,-0.016,100.0,102.0,99.0,13.4,1505.2,328.6,-0.8,1.8,2470.773,13.29,0.048,329.2
2021-11-03T07:31:03,42.805,6.029,0.006,-0.025,-0.036,101.0,100.0,100.0,13.3,1505.2,325.7,-0.7,1.8,2470.801,13.29,0.025,166.5
2021-11-03T07:34:03,42.805,6.029,-0.024,0.015,0.017,99.0,100.0,100.0,13.4,1505.2,330.9,-0.7,1.9,2470.807,13.29,0.028,302.0
2021-11-03T07:37:03,42.805,6.029,-0.021,0.018,0.006,100.0,100.0,100.0,13.4,1505.2,327.3,-0.7,1.8,2470.776,13.29,0.027,310.6
2021-11-03T07:40:03,42.805,6.029,0.001,0.016,0.016,98.0,101.0,100.0,13.3,1505.2,324.9,-0.8,1.8,2470.749,13.29,0.016,3.6
2021-11-03T07:43:03,42.805,6.029,-0.038,0.017,0.009,99.0,101.0,99.0,13.4,1505.2,330.9,-0.7,1.8,2470.78,13.29,0.041,294.1
2021-11-03T07:46:03,42.805,6.029,-0.018,0.014,-0.001,100.0,101.0,100.0,13.3,1505.2,329.7,-0.8,1.8,2470.751,13.29,0.022,307.9
2021-11-03T07:49:03,42.805,6.029,0.0,0.015,0.005,100.0,100.0,100.0,13.3,1505.2,330.0,-0.8,1.8,2470.788,13.29,0.015,0.0
2021-11-03T07:52:03,42.805,6.029,0.013,-0.008,0.006,100.0,101.0,100.0,13.4,1505.2,327.4,-0.8,1.8,2470.804,13.29,0.015,121.6
2021-11-03T07:55:03,42.805,6.029,0.0,0.019,0.001,100.0,101.0,100.0,13.4,1505.2,330.5,-0.7,1.8,2470.769,13.29,0.019,0.0
2021-11-03T07:58:03,42.805,6.029,-0.04,0.024,-0.009,100.0,101.0,100.0,13.4,1505.2,325.9,-0.8,1.8,2470.776,13.29,0.046,301.0
2021-11-03T08:04:03,42.805,6.029,0.005,0.022,0.017,100.0,101.0,100.0,13.3,1505.2,329.7,-0.8,1.8,2470.787,13.28,0.022,12.8
2021-11-03T08:07:03,42.805,6.029,0.006,0.033,0.025,101.0,101.0,100.0,13.4,1505.2,327.2,-0.7,1.8,2470.807,13.28,0.033,10.3
2021-11-03T08:10:03,42.805,6.029,0.013,-0.003,-0.016,102.0,102.0,99.0,13.4,1505.2,328.9,-0.8,1.8,2470.803,13.28,0.013,103.0
2021-11-03T08:13:03,42.805,6.029,0.008,0.001,-0.003,101.0,101.0,99.0,13.4,1505.2,328.8,-0.7,1.8,2470.776,13.29,0.008,82.9
2021-11-03T08:16:03,42.805,6.029,-0.016,0.023,0.011,100.0,101.0,102.0,13.4,1505.2,331.7,-0.8,1.8,2470.743,13.29,0.028,325.2
2021-11-03T08:19:03,42.805,6.029,0.001,-0.001,0.01,100.0,100.0,99.0,13.3,1505.2,326.9,-0.8,1.8,2470.735,13.29,0.001,135.0
2021-11-03T08:22:03,42.805,6.029,-0.014,0.013,-0.009,100.0,101.0,100.0,13.4,1505.2,325.3,-0.7,1.8,2470.781,13.29,0.019,312.9
2021-11-03T08:25:03,42.805,6.029,0.008,0.009,0.044,99.0,100.0,100.0,13.4,1505.2,329.4,-0.8,1.8,2470.728,13.29,0.012,41.6
2021-11-03T08:28:03,42.805,6.029,-0.018,0.027,0.029,101.0,100.0,100.0,13.4,1505.2,327.5,-0.8,1.8,2470.764,13.29,0.032,326.3
2021-11-03T08:31:03,42.805,6.029,-0.008,0.007,0.013,99.0,102.0,100.0,13.4,1505.2,326.1,-0.7,1.8,2470.753,13.29,0.01,311.2
2021-11-03T08:34:03,42.805,6.029,0.0,0.0,-0.019,99.0,101.0,100.0,13.3,1505.2,326.8,-0.7,1.8,2470.751,13.29,0.0,0.0
2021-11-03T08:37:03,42.805,6.029,-0.016,0.021,-0.03,101.0,102.0,100.0,13.4,1505.2,328.1,-0.8,1.9,2470.715,13.29,0.026,322.7
2021-11-03T08:40:03,42.805,6.029,0.004,0.02,0.02,100.0,101.0,100.0,13.4,1505.2,329.4,-0.7,1.8,2470.721,13.29,0.02,11.3
2021-11-03T08:43:03,42.805,6.029,0.005,-0.005,-0.021,99.0,101.0,100.0,13.4,1505.2,329.2,-0.8,1.8,2470.737,13.29,0.007,135.0
2021-11-03T08:46:03,42.805,6.029,0.011,0.013,-0.014,100.0,101.0,99.0,13.3,1505.2,328.4,-0.8,1.8,2470.739,13.29,0.017,40.2
2021-11-03T08:49:03,42.805,6.029,0.0,-0.003,-0.011,100.0,101.0,99.0,13.3,1505.2,327.3,-0.7,1.8,2470.724,13.29,0.003,180.0
2021-11-03T08:52:03,42.805,6.029,0.009,0.016,0.006,99.0,101.0,99.0,13.3,1505.2,326.4,-0.8,1.8,2470.729,13.29,0.018,29.4
2021-11-03T08:55:03,42.805,6.029,-0.008,0.013,0.047,100.0,101.0,100.0,13.4,1505.2,326.5,-0.8,1.8,2470.729,13.29,0.015,328.4
2021-11-03T08:58:03,42.805,6.029,0.028,0.014,0.037,100.0,100.0,99.0,13.3,1505.2,330.1,-0.7,1.8,2470.724,13.29,0.031,63.4
2021-11-03T09:04:03,42.805,6.029,-0.02,0.01,0.01,100.0,100.0,100.0,13.4,1505.2,329.0,-0.8,1.8,2470.759,13.28,0.022,296.6
2021-11-03T09:07:03,42.805,6.029,0.022,-0.012,-0.001,100.0,100.0,100.0,13.4,1505.2,328.2,-0.8,1.8,2470.732,13.28,0.025,118.6
2021-11-03T09:10:03,42.805,6.029,-0.004,0.004,0.014,100.0,101.0,99.0,13.3,1505.2,331.6,-0.8,1.8,2470.734,13.28,0.005,315.0
2021-11-03T09:13:03,42.805,6.029,0.006,0.01,-0.001,101.0,100.0,100.0,13.4,1505.2,331.8,-0.8,1.8,2470.729,13.28,0.011,31.0
2021-11-03T09:16:03,42.805,6.029,0.01,0.017,0.017,100.0,100.0,100.0,13.3,1505.2,327.6,-0.8,1.8,2470.745,13.28,0.019,30.5
2021-11-03T09:19:03,42.805,6.029,0.012,-0.016,-0.001,100.0,100.0,100.0,13.4,1505.2,331.6,-0.7,1.8,2470.719,13.29,0.02,143.1
2021-11-03T09:22:03,42.805,6.029,-0.002,0.007,0.034,100.0,101.0,100.0,13.4,1505.2,327.8,-0.8,1.8,2470.698,13.29,0.007,344.1
2021-11-03T09:25:03,42.805,6.029,0.006,0.008,0.024,100.0,101.0,100.0,13.4,1505.2,329.4,-0.7,1.8,2470.721,13.29,0.01,36.9
2021-11-03T09:28:03,42.805,6.029,-0.005,0.017,0.02,100.0,99.0,101.0,13.4,1505.2,325.1,-0.8,1.9,2470.704,13.29,0.017,343.6
2021-11-03T09:31:03,42.805,6.029,0.011,0.002,0.014,98.0,100.0,101.0,13.4,1505.2,328.2,-0.8,1.8,2470.709,13.29,0.011,79.7
2021-11-03T09:34:03,42.805,6.029,0.0,0.007,0.03,98.0,101.0,100.0,13.4,1505.2,329.5,-0.8,1.8,2470.706,13.29,0.007,0.0
2021-11-03T09:37:03,42.805,6.029,0.005,0.019,0.01,100.0,101.0,99.0,13.4,1505.2,330.5,-0.7,1.8,2470.683,13.29,0.019,14.7
2021-11-03T09:40:03,42.805,6.029,0.003,0.015,0.004,99.0,101.0,100.0,13.4,1505.2,327.5,-0.7,1.8,2470.688,13.29,0.015,11.3
2021-11-03T09:43:03,42.805,6.029,0.009,-0.009,-0.013,100.0,100.0,99.0,13.4,1505.2,331.2,-0.7,1.8,2470.667,13.29,0.012,135.0
2021-11-03T09:46:03,42.805,6.029,-0.011,-0.021,-0.051,100.0,100.0,100.0,13.4,1505.2,328.9,-0.7,1.8,2470.681,13.29,0.023,207.6
2021-11-03T09:49:03,42.805,6.029,-0.004,0.026,0.033,99.0,100.0,99.0,13.4,1505.2,326.6,-0.8,1.8,2470.68,13.29,0.026,351.3
2021-11-03T09:52:03,42.805,6.029,-0.014,0.008,0.023,99.0,101.0,99.0,13.4,1505.2,327.1,-0.8,1.8,2470.698,13.29,0.016,299.7
2021-11-03T09:55:03,42.805,6.029,0.006,0.004,0.02,100.0,102.0,99.0,13.4,1505.2,325.4,-0.8,1.8,2470.703,13.29,0.007,56.3
2021-11-03T09:58:03,42.805,6.029,-0.004,0.025,-0.002,101.0,102.0,99.0,13.4,1505.2,327.2,-0.7,1.8,2470.642,13.29,0.025,350.9
2021-11-03T10:04:03,42.805,6.029,0.007,0.023,0.016,100.0,101.0,100.0,13.4,1505.2,327.6,-0.8,1.9,2470.739,13.28,0.024,16.9